[Date Prev][Date Next][Thread Prev][Thread Next][Date Index][Thread Index]

[jamsat-news:778] jas2info #76


=========================   最新情報   ==============================

        Last updated :Thu.3-Mar.-98 19:30 (JST) #76

====================================================================   
     衛星情報 FOシリーズの軌道要素、テレメトリ、QSOの状況等をま
   とめてみました.

  1)FO−29(ふじ3号)は3月3日 (火)の18:36(JST)
     のパスではJAアナログモードで運用されておりました.
         
  ■ 軌道要素1:「jamsatーkeps:668」より
                 SB KEPS @ AMSAT  $ORBS-058.N
                 2Line Orbital Elements 058.AMSAT

  HR AMSAT ORBITAL ELEMENTS FOR AMATEUR SATELLITES IN NASA FORMAT
  FROM WA5QGD FORT WORTH,TX February 27, 1998
  SEND SUBSCRIBE/UNSUBSCRIBE TO listserv@amsat.org ONLY
  BID: ORBS-058.N

  DECODE 2-LINE ELSETS WITH THE FOLLOWING KEY:
  1 AAAAAU 00  0  0 BBBBB.BBBBBBBB  .CCCCCCCC  00000-0  00000-0 0  DDDZ
  2 AAAAA EEE.EEEE FFF.FFFF GGGGGGG HHH.HHHH III.IIII JJ.JJJJJJJJKKKKKZ
  KEY: A-CATALOGNUM B-EPOCHTIME C-DECAY D-ELSETNUM E-INCLINATION F-RAAN
  G-ECCENTRICITY H-ARGPERIGEE I-MNANOM J-MNMOTION K-ORBITNUM Z-CHECKSUM
  TO ALL RADIO AMATEURS BT
 
 FO-29
  1 24278U 96046B   98057.07619215 -.00000010  00000-0  28154-4 0 01637
  2 24278 098.5154 068.3282 0350567 248.1027 108.2498 13.52638388075445

 
 ■ 軌道要素2:「jamsatーkeps:669」より
                SB KEPS @ AMSAT  $ORBS-058.O
                Orbital Elements  058.OSCAR

  HR AMSAT ORBITAL ELEMENTS FOR OSCAR SATELLITES
  FROM WA5QGD FORT WORTH,TX February 27, 1998
  SEND SUBSCRIBE/UNSUBSCRIBE TO listserv@amsat.org ONLY
  BID: ORBS-058.O
  TO ALL RADIO AMATEURS BT

  Satellite: FO-29
  Catalog number: 24278
  Epoch time:      98057.07619215
  Element set:    0163
  Inclination:      098.5154 deg
  RA of node:       068.3282 deg
  Eccentricity:    0.0350567
  Arg of perigee:   248.1027 deg
  Mean anomaly:     108.2498 deg
  Mean motion:   13.52638388 rev/day
  Decay rate:       -1.0e-07 rev/day^2
  Epoch rev:           07544
  Checksum:              327
 -----------------------------------------------------------
  1 )FO−29(ふじ3号)の 3月3日(火)のJAアナログモードで
    運用中の1分毎のビーコン波にのって送信されるCWテレメトリの1部です.

    AS7616C   3Mar98
    JST  18:36 - 18:59                                                            

HI HI AE C7 81 55 00 6B 00 00 09 00 7B 9C 6E 61 94 92 B0 82 91 8F 91 92 8F 
HI HI AE C7 81 55 00 6B 00 00 09 00 59 76 72 60 94 92 B0 D0 91 8F 91 92 8F 
HI HI AE C7 81 55 00 6B 00 00 00    58 AA 7A 61 94 92 B0 7A 92 8F 91 91 8F 
HI HI AE C7 81 55 00 6B 00 08 55 90 8C 74 6D 61 95 92 B0 87 91 7F 91 92 8F 
HI HI AE C7 81 55 00 6B 00 00 90 03 2  98 75 60 94 92 B0 7B 91 8F 91 91 8F 
HI HI AE C7 81 55 00 6B 00 00 09 00 9A 8A 79 61 95 92 B0 B0 91 8F 91 92 8F 
HI HI AE C7 81 55 00 6B 00 06 55 00 45 90 79 61 95 92 B0 7F 92 8F 91 92 8F 
HI HI AE C7 81 55 00 6B 00 0  99 08 55 87 75 61 95 92 B0 73 92 8F 91 92 8F 
HI HI AE C7 81 55 00 6B 00 00 09 00 73 A1 7F 61 95 92 B0 77 92 8F 91 92 8F 
HI HI AE C7 81 55 00 6B 00 00 09 00 49 72 76 61 95 92 B0 7D 92 8F 91 92 BF 
 
 2) CWアナログテレメトリ換算値例	FO−29(ふじ3号)	
	上記テレメトリの最後の行を換算
					
	テレメトリ	内   容		換算値	単 位
        3C	磁気センサーZ軸=	35784.3	nT
        3D	磁気センサX軸	=	55882.3	nT
        4A	太陽電池発生電流=	 1156.9	mA
        4B	B充放電電流	=	  -98.8	mA
        4C	B端子電圧	=	   16.0	V
        4D	B中間端子電圧	=  	    7.0	V
        5A	バス電圧	=	   17.3	V
        5B	JTA送信電力	=	  714.4	mW
        5C 	構体温度1	=	   25.2	℃
        5D	構体温度2	=	   26.3	℃
        6A	構体温度3	=	   25.6	℃
        6B	構体温度4	=	   25.2	℃
        6C	Bセル温度	= 	   26.3	℃
 ==========================================================================  
  3)FO−20(ふじ 2号)のCWテレメトリは3月3日(火)のパスでも
      切れ目の無い連続音になっいましたが,アナログ QSOは通常どうり行われております.
 -------------------------------------------------------------------------- 
 
 ■ 軌道要素1 :出典は「ふじ3号」に同じ.
 
 FO-20
 1 20480U 90013C   98057.20168737 -.00000073  00000-0 -96004-4 0 00424
 2 20480 099.0760 336.3636 0541206 162.4146 199.6533 12.83240646377288
   
  ■ 軌道要素2 :出典は「ふじ3号」に同じ. 
  
  Satellite: FO-20
  Catalog number: 20480
  Epoch time:      98057.20168737
  Element set:    0042
  Inclination:      099.0760 deg
  RA of node:       336.3636 deg
  Eccentricity:    0.0541206
  Arg of perigee:   162.4146 deg
  Mean anomaly:     199.6533 deg
  Mean motion:   12.83240646 rev/day
  Decay rate:       -7.3e-07 rev/day^2
  Epoch rev:           37728
  Checksum:              309

 =========================   JARL運用情報   =========================

  *JARL のホームページに運用の予定変更が記載されていましたのでご紹介します.

        ■ ふじ3号/FO−29 ■     
   
   QTC !
   運用について

  2月22日プログラムのリロードが完了しましたが再度メモリーエラーが発生している事を
 確認しました。再度コンピューターのリセット,プログラムのロード作業を行っていますので,
 今しばらくお待ち下さい。
 リロード作業中はアナログ系中継器は使用できますのでご活用下さい。
  今後の運用に付きましては3月16日以降にお知らせいたします。

       ■ ふじ2号/FO−20 ■
      
            「ふじ2号」 現況                                                                                               
   JAS-1b/FO-20(ふじ2号)の不具合発生について

    JAS-1b(ふじ2号)のCWテレメトリ信号に,1997年10月12日12時
 (JST)の日本上空通過時,3桁の数字が繰り返されるはずが3個の長音の
  繰り返しとなっているという異常が発見されました。この不具合は次の通過時
  からは回復していましたが13日15時20分の通過時に再び観測されました。
  衛星のアナログ系中継モード動作は異常が無く,正常時のテレメトリ内容からは
  衛星の動作に異常は認められません。従って,直ちに衛星のミッションに影響す
  ることは無いと予想されますので,当面はアナログ系中継モードを継続します。
  衛星は既に打ち上げてから7年8ヶ月を経ておりますので,今後は監視を強化す
  る予定です。アマチュア各位のレポートをお待ちします.   
  
「ふじ2号」の運用

  CWテレメトリの機能に障害が発生しています。詳細は「ふじ2号」の現況をご覧下さい。
  運用はアナログ系の連続運用とします。          

  以上  http://www.jarl.or.jp/Japanese/3_Fuji/jr1nvu.htm  より.
                                           
   =============   JAS-2 (ふじ3号)と現在までの情報   ===========  
  A.電話によるふじ3号の運用情報
      社団法人日本アマチュア連盟によるサービス
           TEL .   03− 3942 − 1000
  B.アマチュア無線FAXサービス
      JARLによるふじ3号の軌道情報(オービットカレンダー)
         FAX No.  03− 3233 −0055
  C.WWWブラウザで情報を簡単に見れる人のためにJAS−2
     ふじ3号の衛星としての運用されるまでの名前)の概要、打ち上げ
     までの状況、運用中における状況を説明したホームページを紹介し
     ておきます.
    1)社団法人日本アマチュア無線連盟(JARL)のホームページ

          http://www.jarl.or.jp/Japanese/3_Fuji/jr1nvu.htm
 
    2)宇宙開発事業団(NASDA)ホームページ 
          http://www.nasda.go.jp/
         打上げ衛星 :地球観測プラットフォーム技術衛星(ADEOS) 
                       アマチュア衛星3号(JAS-2)
          http://yyy.tksc.nasda.go.jp/Home/Press/Press-j/jas-2_j.html        

  D.JAMSATによる軌道情報の活用
        JAMSATのホームページまたはjamsat−kepsの軌道要素より
      衛星の軌道情報を得る.
     JAMSATホームページ
               URL    http://www.jamsat.or.jp
       上記ホームページでは各地で行われるアマチュア通信衛星に関する
      ミューティングのお知らせや世界のアマチュア衛星に関する情報が
      満載されています.

=======   FO−20/29(ふじ 2号/3号)のアナログQSOの状況  ==========

    JA6BX局の江崎昌男さんがQSOの状況を「jamsat−bb:3162」にFO-20/29 
  Activitiesとしてレポートされましたので転載させて頂きます.
  これからも宜しくお願いします.

   この所、FO-20とFO-29が大変にぎやかです。各地でのJAMSATのミーティングの
 効果ではないでしょうか。

   今日(2/22[日曜])の11:00JST前後と、その次の12:50JST前後の2つのパスで、
 私がワッチしただけでも次の局が出ていました。
 他にも聞き落としが有ったかもしれませんが、あしからず!
 
 7M4DUI JM3EYK JH4PQM JS3OSI JH7LMO JA3TKW JA9ATJ JR6NVG JA5AKB JM1ZZH/1
 JA3CG/1 JA1YEJ VR2XRW JR6BLW

 上記の他、最近ワッチまたはQSOした局として国内では:
  7K4IIN JA1WPX JL2GSN JN7EXM 7L1FPU JA9ABA JA1JRZ JR2DUD JA9LX JA6EGM 
  JH1MYH JK1DVX JH4OWG/1 JA1VKH JH5DAH JA2WDN

 海外局では: VR2XMT VR2ZGK 9V1UV BV3CEが最近よく出ているようです。
             他に常駐と思われる KB8YHV/KH2 が 1月中ごろに出ていました。

 何分にも限られた時間内でのワッチですので、洩れや聞き落としもかなりあると
 思いますが、FO-20/29の近況を知る一助となれば幸いです。
  
  73, de JA6BX - Y. Esaki 34122731@people.or.jp 
                         or, ja6bx@jamsat.or.jp
                             ja6bx@amsat.org  
 =========================================================================
       JAMSATのメンバーのご協力によりJH6MME(高山 秀造)が
    執筆・編集を担当しております.ご指摘の意見、疑問やこのようにしたら
    というアイデアがありましたら小さなことでもかまいませんので気軽に下
    記アドレスまでご連絡ください.jamsat−newsからjas2
    infoへの転載をJH4PHW局坂井さんに担当して頂いております.
                    Eーmail : jh6mme@jamsat.or.jp : jh4phw@jamsat.or.jp
 ===============================   END  ===============================